Location: Central Falls
(41.8900°N, 71.3929°W)
Time: 14:03:16
(UTC+00:00)

Vanguard 1 Rocket - Pass Details

Date: 10 December 2023
Orbit: 654 x 4218 km, 34.3° (Epoch: 24 February)

Event Time Altitude Azimuth Distance (km) Brightness Sun altitude
Rises 15:37:07 0° 277° (W) 5,815 11.3 23.7°
Reaches altitude 10° 15:45:05 10° 248° (WSW) 3,797 10.7 24.0°
Maximum altitude 15:47:28 11° 233° (SW) 3,400 10.7 24.1°
Drops below altitude 10° 15:49:34 10° 218° (SW) 3,222 10.9 24.2°
Sets 15:54:26 0° 183° (S) 3,596 11.8 24.4°
